Weather History for Lordsburg, NM

Change the Weather History Date:

Wednesday, July 9, 2014

  Actual Average Record
Temperature  
Mean Temperature 76 °F -  
Max Temperature 89 °F 96 °F 96 °F (2013)
Min Temperature 64 °F 64 °F 64 °F (2014)
Cooling Degree Days 12    
Growing Degree Days 26 (Base 50)    
Moisture  
Dew Point 57 °F    
Average Humidity 54    
Maximum Humidity 83    
Minimum Humidity 26    
Precipitation  
Precipitation 0.04 in - - ()
Sea Level Pressure  
Sea Level Pressure 30.10 in    
Wind  
Wind Speed 7 mph (WNW)    
Max Wind Speed 17 mph    
Max Gust Speed 28 mph    
Visibility 10 miles    
Events Rain , Thunderstorm    
Averages and records for this station are not official NWS values.
T = Trace of Precipitation, MM = Missing Value Source: NWS Daily Summary

Daily Weather History Graph

Daily Weather History Graph

Search for Another Location

Airport:

Trip Planner

Search our weather history database for the weather conditions in past years. The results will help you decide how hot, cold, wet, or windy it might be!

Date:

Astronomy

Jul. 09, 2014 Rise Set
Actual Time 6:15 AM MDT 8:24 PM MDT
Civil Twilight 5:47 AM MDT 8:52 PM MDT
Nautical Twilight 5:13 AM MDT 9:26 PM MDT
Astronomical Twilight 4:36 AM MDT 10:03 PM MDT
Moon 5:42 PM MDT (7/9) 3:31 AM MDT (7/9)
Length of Visible Light 15h 05m
Length of Day
14h 09m
Waxing Gibbous, 90% of the Moon is Illuminated
Jul 9
Waxing Gibbous
Jul 12
Full
Jul 18
Last Quarter
Jul 26
New
Aug 3
First Quarter

Hourly Weather History & Observations

Time (MDT) Temp. Heat Index Dew Point Humidity Pressure Visibility Wind Dir Wind Speed Gust Speed Precip Events Conditions
12:15 AM 71.6 °F - 62.6 °F 73% 30.14 in 10.0 mi NW 10.4 mph - 0.02 in Rain , Thunderstorm Light Thunderstorms and Rain
12:35 AM 71.6 °F - 60.8 °F 69% 30.14 in 10.0 mi WNW 9.2 mph - 0.02 in   Overcast
12:55 AM 71.6 °F - 60.8 °F 69% 30.15 in 10.0 mi WNW 6.9 mph - 0.02 in   Overcast
1:15 AM 71.6 °F - 62.6 °F 73% 30.15 in 10.0 mi NNW 3.5 mph - N/A   Overcast
1:35 AM 69.8 °F - 62.6 °F 78% 30.14 in 10.0 mi NW 5.8 mph - 0.01 in Rain Light Rain
1:55 AM 69.8 °F - 60.8 °F 73% 30.15 in 10.0 mi NW 9.2 mph - 0.02 in Rain Light Rain
2:15 AM 69.8 °F - 60.8 °F 73% 30.15 in 10.0 mi NW 8.1 mph - N/A   Mostly Cloudy
2:35 AM 69.8 °F - 60.8 °F 73% 30.14 in 10.0 mi NW 12.7 mph - N/A   Mostly Cloudy
2:55 AM 69.8 °F - 60.8 °F 73% 30.14 in 10.0 mi NNW 11.5 mph - N/A   Mostly Cloudy
3:15 AM 69.8 °F - 60.8 °F 73% 30.13 in 10.0 mi NW 10.4 mph - N/A   Mostly Cloudy
3:35 AM 69.8 °F - 60.8 °F 73% 30.13 in 10.0 mi NW 9.2 mph - N/A   Mostly Cloudy
3:55 AM 68.0 °F - 60.8 °F 78% 30.12 in 10.0 mi WNW 8.1 mph - N/A   Scattered Clouds
4:15 AM 68.0 °F - 59.0 °F 73% 30.12 in 10.0 mi WNW 6.9 mph - N/A   Mostly Cloudy
4:35 AM 68.0 °F - 59.0 °F 73% 30.11 in 10.0 mi WNW 8.1 mph - N/A   Mostly Cloudy
4:55 AM 68.0 °F - 60.8 °F 78% 30.11 in 10.0 mi West 12.7 mph - N/A   Mostly Cloudy
5:15 AM 68.0 °F - 59.0 °F 73% 30.11 in 10.0 mi WNW 8.1 mph - N/A   Mostly Cloudy
5:35 AM 66.2 °F - 59.0 °F 78% 30.11 in 10.0 mi WNW 9.2 mph - N/A   Scattered Clouds
5:55 AM 66.2 °F - 59.0 °F 78% 30.11 in 10.0 mi WNW 8.1 mph - N/A   Clear
6:15 AM 66.2 °F - 59.0 °F 78% 30.12 in 10.0 mi WNW 8.1 mph - N/A   Clear
6:35 AM 64.4 °F - 59.0 °F 83% 30.13 in 10.0 mi WNW 4.6 mph - N/A   Clear
6:55 AM 66.2 °F - 59.0 °F 78% 30.13 in 10.0 mi West 6.9 mph - N/A   Clear
7:15 AM 68.0 °F - 59.0 °F 73% 30.13 in 10.0 mi West 6.9 mph - N/A   Clear
7:35 AM 69.8 °F - 59.0 °F 68% 30.14 in 10.0 mi WNW 5.8 mph - N/A   Clear
7:55 AM 69.8 °F - 59.0 °F 68% 30.14 in 10.0 mi WNW 8.1 mph - N/A   Clear
8:15 AM 71.6 °F - 59.0 °F 64% 30.14 in 10.0 mi WNW 6.9 mph - N/A   Clear
8:35 AM 71.6 °F - 60.8 °F 69% 30.14 in 10.0 mi WNW 6.9 mph - N/A   Clear
8:55 AM 71.6 °F - 60.8 °F 69% 30.14 in 10.0 mi NW 5.8 mph - N/A   Clear
9:15 AM 73.4 °F - 60.8 °F 65% 30.15 in 10.0 mi NW 4.6 mph - N/A   Clear
9:35 AM 75.2 °F - 60.8 °F 61% 30.15 in 10.0 mi NW 5.8 mph - N/A   Clear
9:55 AM 77.0 °F - 59.0 °F 54% 30.15 in 10.0 mi NW 4.6 mph - N/A   Clear
10:15 AM 77.0 °F - 59.0 °F 54% 30.15 in 10.0 mi WSW 6.9 mph - N/A   Clear
10:35 AM 78.8 °F - 59.0 °F 51% 30.15 in 10.0 mi WSW 6.9 mph - N/A   Clear
10:55 AM 78.8 °F - 60.8 °F 54% 30.15 in 10.0 mi West 4.6 mph - N/A   Clear
11:15 AM 78.8 °F - 59.0 °F 51% 30.15 in 10.0 mi WNW 4.6 mph - N/A   Clear
11:35 AM 80.6 °F 81.1 °F 59.0 °F 48% 30.15 in 10.0 mi WNW 4.6 mph - N/A   Clear
11:55 AM 80.6 °F 81.1 °F 59.0 °F 48% 30.14 in 10.0 mi WNW 4.6 mph - N/A   Clear
12:15 PM 82.4 °F 82.5 °F 59.0 °F 45% 30.13 in 10.0 mi Calm Calm - N/A   Clear
12:35 PM 82.4 °F 82.0 °F 57.2 °F 42% 30.12 in 10.0 mi South 3.5 mph - N/A   Clear
12:55 PM 82.4 °F 81.7 °F 55.4 °F 39% 30.11 in 10.0 mi Calm Calm - N/A   Clear
1:15 PM 82.4 °F 81.7 °F 55.4 °F 39% 30.10 in 10.0 mi Calm Calm - N/A   Clear
1:35 PM 84.2 °F 83.0 °F 55.4 °F 37% 30.10 in 10.0 mi Calm Calm - N/A   Clear
1:55 PM 86.0 °F 84.5 °F 55.4 °F 35% 30.09 in 10.0 mi Calm Calm - N/A   Clear
2:15 PM 86.0 °F 84.2 °F 53.6 °F 33% 30.08 in 10.0 mi Calm Calm - N/A   Clear
2:35 PM 87.8 °F 85.7 °F 53.6 °F 31% 30.06 in 10.0 mi Calm Calm - N/A   Clear
2:55 PM 87.8 °F - 51.8 °F 29% 30.05 in 10.0 mi Calm Calm - N/A   Clear
3:15 PM 87.8 °F 85.7 °F 53.6 °F 31% 30.05 in 10.0 mi NE 3.5 mph - N/A   Clear
3:35 PM 87.8 °F - 51.8 °F 29% 30.03 in 10.0 mi Calm Calm - N/A   Clear
3:55 PM 89.6 °F - 51.8 °F 27% 30.03 in 10.0 mi Calm Calm - N/A   Clear
4:15 PM 89.6 °F - 50.0 °F 26% 30.01 in 10.0 mi SW 3.5 mph - N/A   Clear
4:35 PM 89.6 °F - 50.0 °F 26% 30.01 in 10.0 mi SSE 3.5 mph - N/A   Clear
4:55 PM 89.6 °F - 50.0 °F 26% 30.01 in 10.0 mi SW 3.5 mph - N/A Thunderstorm Scattered Clouds
5:15 PM 87.8 °F 85.7 °F 53.6 °F 31% 30.01 in 10.0 mi SSW 11.5 mph 16.1 mph N/A Thunderstorm Scattered Clouds
5:35 PM 87.8 °F 85.7 °F 53.6 °F 31% 30.01 in 10.0 mi SW 10.4 mph - N/A   Clear
5:55 PM 87.8 °F - 51.8 °F 29% 30.00 in 10.0 mi WSW 11.5 mph - N/A   Scattered Clouds
6:15 PM 87.8 °F 85.7 °F 53.6 °F 31% 30.01 in 10.0 mi North 16.1 mph 21.9 mph N/A   Mostly Cloudy
6:35 PM 86.0 °F 84.2 °F 53.6 °F 33% 30.02 in 10.0 mi NNE 17.3 mph - N/A Thunderstorm Overcast
6:55 PM 80.6 °F 80.5 °F 55.4 °F 42% 30.02 in 7.0 mi NE 17.3 mph 27.6 mph N/A Thunderstorm Thunderstorm
7:15 PM 82.4 °F 81.4 °F 53.6 °F 37% 30.02 in 10.0 mi NNE 16.1 mph 24.2 mph N/A Thunderstorm Thunderstorm
7:35 PM 80.6 °F 80.3 °F 53.6 °F 39% 30.03 in 10.0 mi NNE 17.3 mph - N/A Thunderstorm Clear
7:55 PM 80.6 °F 80.3 °F 53.6 °F 39% 30.03 in 10.0 mi NNE 11.5 mph - N/A   Clear
8:15 PM 80.6 °F 80.3 °F 53.6 °F 39% 30.04 in 10.0 mi NNE 12.7 mph 17.3 mph N/A   Clear
8:35 PM 78.8 °F - 51.8 °F 39% 30.04 in 10.0 mi NE 8.1 mph - N/A   Clear
8:55 PM 78.8 °F - 53.6 °F 42% 30.08 in 10.0 mi SSW 4.6 mph - N/A   Scattered Clouds
9:15 PM 78.8 °F - 53.6 °F 42% 30.08 in 10.0 mi Calm Calm - N/A   Scattered Clouds
9:35 PM 77.0 °F - 55.4 °F 47% 30.08 in 10.0 mi SW 8.1 mph - N/A   Mostly Cloudy
9:55 PM 77.0 °F - 59.0 °F 54% 30.07 in 10.0 mi West 11.5 mph - N/A Rain Light Rain
10:15 PM 77.0 °F - 59.0 °F 54% 30.07 in 10.0 mi NW 9.2 mph - N/A Rain Light Rain
10:35 PM 75.2 °F - 59.0 °F 57% 30.06 in 10.0 mi NW 15.0 mph - N/A Rain Light Rain
10:55 PM 75.2 °F - 59.0 °F 57% 30.07 in 10.0 mi NW 5.8 mph - N/A   Overcast
11:15 PM 75.2 °F - 57.2 °F 53% 30.08 in 10.0 mi Calm Calm - N/A   Overcast
11:35 PM 75.2 °F - 59.0 °F 57% 30.10 in 10.0 mi Calm Calm - N/A   Overcast
11:55 PM 75.2 °F - 59.0 °F 57% 30.09 in 10.0 mi West 3.5 mph - N/A   Mostly Cloudy